Wind_Speed
8 8 8 8 8 8 8 8 8 7 7 6 6 6 6 5 6 6 7 7 8 8 9 9 9 9 9 9 9 9 10 10 11 12 13 13 14 14 15 16 18 19 20
9 9 9 9 9 9 8 8 9 9 8 8 7 7 7 7 7 8 8 8 9 9 9 9 10 10 10 11 11 11 11 12 13 13 14 15 16 17 18 19 20 21 21
9 10 10 10 10 9 9 8 9 9 9 9 9 8 9 9 9 10 10 10 11 11 11 11 11 11 12 12 13 14 14 14 15 16 17 17 18 19 20 21 21 22 23
10 10 10 10 10 9 9 9 9 9 9 10 10 10 10 11 11 11 12 12 13 13 13 13 14 14 14 15 16 16 17 17 18 19 20 20 21 22 22 23 23 25 26
11 10 10 10 10 10 10 10 10 10 11 11 11 11 12 12 12 12 13 14 14 14 15 15 16 16 17 18 19 19 20 21 22 22 23 24 24 25 26 26 27 28 29
12 11 11 12 12 11 11 11 11 11 12 12 13 13 13 13 13 14 15 15 16 16 17 18 18 19 20 21 22 23 24 25 26 26 26 27 28 29 29 30 31 32 33
13 12 12 12 12 13 13 12 12 13 13 14 15 15 14 14 15 16 17 17 18 19 19 20 21 22 23 23 24 26 27 27 28 29 30 31 32 32 33 34 34 35 36
14 14 13 13 14 14 15 15 15 15 15 16 16 16 17 17 17 18 19 19 20 21 22 23 23 24 25 27 27 28 29 30 32 33 33 34 35 36 36 37 38 39 40
15 15 15 15 15 15 16 16 17 17 17 17 18 18 19 19 20 20 21 22 22 23 24 25 26 27 28 29 30 31 32 33 35 35 36 37 38 38 39 40 41 42 43
16 17 17 17 17 17 18 18 18 19 19 20 20 20 21 22 23 23 24 24 25 26 27 28 29 30 31 32 33 34 35 36 37 37 38 39 40 41 42 43 44 44 45
18 18 18 18 19 19 19 20 20 20 21 21 22 22 23 24 25 26 26 27 28 29 30 31 32 33 34 35 36 37 38 39 39 40 41 42 43 44 45 46 47 48 49
19 19 19 20 20 21 21 21 22 23 23 23 24 24 25 26 27 28 29 30 31 32 33 34 35 37 38 38 39 40 41 41 42 43 44 45 46 46 47 48 49 50 51
21 21 21 22 22 23 23 24 24 25 25 25 26 27 28 29 30 31 32 33 34 35 36 37 38 40 40 41 42 42 43 43 44 45 46 46 47 48 49 50 50 51 52
22 23 24 24 25 25 26 27 27 28 28 29 29 30 31 32 33 35 36 37 38 39 39 40 41 42 42 43 43 44 45 46 46 47 48 49 50 50 51 51 51 52 52
24 25 25 26 27 28 28 29 30 31 32 32 33 34 35 35 37 38 39 40 41 42 42 43 43 44 44 44 45 46 47 48 49 50 50 51 51 52 52 52 52 52 51
26 27 28 28 29 30 31 32 33 34 35 36 37 37 38 39 40 41 42 42 43 44 44 44 45 45 46 47 48 49 50 50 51 52 52 53 53 53 53 52 52 52 51
28 29 30 31 31 32 33 34 35 36 37 38 39 41 42 42 42 43 43 44 44 45 46 47 48 49 50 50 51 51 52 52 53 53 54 54 54 54 53 53 53 53 53
31 31 32 33 34 35 35 36 37 38 39 40 42 43 43 43 44 44 45 46 46 48 49 50 51 52 53 53 53 53 53 54 54 55 55 55 55 55 54 54 54 54 54
33 34 35 35 36 37 38 39 39 40 42 43 43 44 44 45 46 47 48 48 49 50 51 52 53 54 55 55 55 55 55 56 56 56 56 56 56 55 55 55 56 55 55
36 36 37 38 39 40 40 41 43 43 44 45 46 46 47 48 48 49 50 51 51 52 53 54 55 56 56 56 56 56 56 56 56 56 56 56 56 56 56 56 56 55 55
38 39 40 40 41 42 43 44 45 46 47 47 48 49 49 50 50 51 52 52 53 54 55 56 57 57 57 57 57 57 57 57 57 56 56 56 56 56 56 55 55 55 55
40 41 42 43 44 45 45 46 47 48 48 49 49 49 50 51 51 52 53 54 55 55 56 57 57 57 58 58 57 57 57 57 57 56 56 56 56 56 56 55 55 54 52
43 44 44 45 46 46 47 47 48 48 49 49 50 50 51 52 53 54 55 55 56 57 57 58 58 58 58 58 57 57 57 57 56 56 56 56 55 55 55 54 52 51 49
45 45 46 47 47 47 48 48 49 49 49 50 51 52 53 53 54 55 55 56 57 57 58 59 59 59 58 57 57 56 56 56 55 55 55 54 54 53 52 51 49 47 45
46 47 47 47 48 48 49 49 49 50 51 52 52 53 53 54 55 56 57 57 58 58 59 60 60 58 57 56 56 56 55 55 54 54 53 52 52 51 50 48 46 45 43
47 48 48 49 49 50 50 51 52 52 52 53 54 55 55 56 57 57 57 58 59 59 59 59 58 57 56 55 55 54 54 54 53 52 52 51 50 49 48 47 45 43 42
Wind_Direction
247 251 255 259 261 269 271 266 263 264 267 270 275 276 284 297 310 318 324 330 332 332 332 330 329 328 328 330 326 322 318 315 311 306 303 300 297 294 291 288 284 281 279
251 256 259 260 263 270 271 266 264 264 268 270 273 274 282 289 298 305 309 314 318 321 322 321 319 318 319 321 321 319 316 314 311 308 306 303 299 296 294 292 287 283 281
255 258 260 263 264 266 270 270 263 264 269 274 275 274 283 288 291 293 297 303 306 310 313 314 314 313 312 312 312 312 310 308 307 306 305 303 301 299 297 293 290 286 283
254 258 260 262 264 264 270 271 266 265 267 273 275 282 286 288 289 289 291 296 300 303 305 307 308 309 308 308 307 306 305 304 304 304 303 302 301 300 298 295 292 288 286
251 254 257 262 265 266 267 266 264 264 267 273 279 284 285 288 290 291 290 293 295 297 300 301 303 304 305 306 305 304 303 302 302 302 301 301 300 299 296 294 292 290 288
252 255 258 263 266 266 265 263 264 266 271 276 280 283 285 287 289 290 291 292 294 296 297 298 298 299 300 302 302 302 301 301 301 301 300 299 299 297 295 293 292 290 288
253 257 261 264 267 267 266 265 267 269 273 276 279 281 281 284 288 290 291 291 292 294 296 297 298 298 299 300 300 300 300 299 300 300 299 298 297 295 294 293 292 291 290
254 259 263 265 268 269 267 267 270 273 274 276 278 279 282 285 287 289 289 291 293 295 296 297 297 298 299 300 299 299 299 299 299 299 299 298 297 296 294 293 293 292 292
257 260 262 266 268 268 269 269 271 273 276 278 280 280 283 284 286 287 288 291 293 294 295 296 297 297 299 299 299 299 298 298 299 299 299 298 297 296 295 294 294 293 293
260 262 264 266 268 269 270 271 272 274 276 279 279 280 282 284 285 287 288 290 292 294 295 295 296 297 297 298 298 297 297 298 298 299 299 299 298 297 296 296 295 295 294
263 264 266 267 268 270 271 272 274 276 277 278 279 281 283 284 285 287 289 291 292 293 294 294 295 296 296 296 297 297 297 297 298 298 298 298 298 297 297 297 297 296 295
265 266 267 268 268 270 272 273 275 276 277 278 279 281 283 284 285 287 289 291 292 293 293 294 294 295 295 296 296 297 297 297 298 298 298 298 298 298 298 298 297 297 297
266 267 268 268 270 272 274 275 276 277 278 279 280 281 282 283 285 287 289 290 291 292 293 293 294 295 295 295 296 296 297 297 298 299 299 299 298 298 298 298 298 297 297
267 269 270 271 272 274 276 277 278 278 279 280 280 281 282 283 285 286 288 289 290 292 293 294 294 295 295 295 296 296 296 297 298 299 299 299 298 298 298 298 298 297 297
269 271 272 273 274 275 277 278 279 279 280 281 281 282 283 284 285 287 288 289 290 291 292 293 293 294 294 295 296 296 296 297 298 298 298 298 298 298 298 298 298 297 297
272 272 274 275 276 277 278 279 280 280 281 282 282 283 283 284 286 287 288 289 289 290 291 292 292 293 294 295 295 296 296 297 297 298 298 298 298 298 297 297 297 297 296
275 276 276 276 278 279 280 280 281 281 282 283 283 284 285 286 287 288 288 289 289 289 290 291 292 292 293 294 295 296 296 297 297 298 298 298 297 297 297 296 296 296 296
277 278 278 279 279 280 281 282 282 282 282 283 284 285 286 287 288 288 288 288 289 289 290 290 291 292 292 293 294 295 296 296 297 297 297 297 297 297 297 296 296 296 295
278 279 279 280 281 281 282 282 283 284 284 285 285 286 287 287 287 287 288 288 289 289 289 290 291 292 292 293 294 295 296 296 297 297 297 297 297 297 296 296 296 296 295
280 280 281 282 282 282 283 283 284 284 284 285 285 285 286 287 287 287 288 288 289 289 290 290 291 292 293 293 294 295 296 296 296 296 297 296 296 296 296 296 296 296 296
281 282 283 283 283 283 284 284 284 285 285 285 286 286 286 287 288 288 289 289 290 290 290 291 291 292 293 294 294 295 295 296 296 296 296 296 295 296 296 297 297 297 297
281 282 283 284 284 284 285 285 285 285 285 286 286 287 287 288 289 290 290 290 290 291 291 291 292 293 293 294 294 294 295 295 295 295 295 295 295 295 296 297 297 297 297
282 283 283 284 285 285 286 286 286 286 286 287 287 287 288 289 289 289 290 291 291 291 291 292 292 293 294 294 294 294 294 294 295 295 295 296 296 296 296 297 297 297 295
283 284 285 285 286 286 287 287 287 287 287 288 288 288 289 289 289 290 290 291 292 292 292 293 293 293 293 293 294 293 293 294 295 295 296 296 296 297 297 297 297 296 294
284 284 285 286 286 287 287 288 288 288 289 289 288 289 289 290 290 291 291 292 292 292 292 293 293 293 293 292 293 292 293 294 295 295 295 296 297 297 297 297 296 294 293
285 285 286 286 287 287 288 288 289 289 290 290 290 290 291 291 291 292 292 293 293 292 293 293 293 293 292 292 292 292 292 293 294 294 294 295 296 297 297 296 295 294 292
Height
5869 5869 5869 5868 5867 5866 5865 5864 5864 5864 5864 5865 5865 5865 5865 5865 5864 5864 5863 5862 5861 5860 5859 5858 5857 5855 5854 5853 5852 5851 5850 5849 5848 5847 5846 5845 5844 5843 5842 5841 5841 5840 5839
5867 5867 5866 5865 5865 5864 5862 5861 5861 5862 5862 5862 5862 5863 5863 5862 5862 5862 5861 5861 5860 5859 5857 5856 5855 5854 5852 5851 5850 5849 5847 5846 5845 5844 5842 5841 5840 5838 5837 5836 5835 5834 5833
5864 5864 5863 5863 5862 5861 5860 5859 5858 5859 5860 5860 5860 5860 5860 5860 5860 5859 5859 5858 5857 5856 5855 5854 5852 5851 5850 5849 5847 5846 5844 5843 5841 5840 5838 5837 5835 5834 5832 5830 5829 5827 5826
5861 5861 5861 5860 5859 5859 5858 5857 5856 5857 5857 5858 5858 5858 5857 5857 5857 5856 5855 5855 5854 5853 5852 5850 5849 5848 5847 5845 5844 5842 5840 5839 5837 5835 5834 5832 5830 5828 5826 5824 5822 5820 5819
5859 5858 5858 5857 5857 5856 5856 5855 5855 5855 5855 5855 5855 5855 5855 5854 5853 5852 5852 5851 5850 5849 5848 5847 5845 5844 5842 5840 5839 5837 5835 5833 5831 5830 5828 5826 5823 5821 5819 5817 5815 5813 5811
5856 5856 5855 5855 5854 5853 5853 5853 5853 5853 5853 5853 5853 5852 5851 5850 5850 5849 5848 5847 5846 5845 5843 5842 5840 5839 5837 5835 5833 5831 5829 5827 5825 5823 5820 5818 5816 5813 5811 5808 5806 5804 5802
5853 5852 5852 5852 5851 5851 5851 5850 5850 5850 5850 5849 5849 5848 5847 5847 5846 5845 5844 5842 5841 5839 5838 5836 5835 5833 5831 5829 5827 5825 5822 5819 5817 5815 5812 5809 5807 5804 5802 5799 5796 5793 5791
5849 5849 5849 5848 5848 5847 5847 5847 5846 5846 5845 5845 5844 5844 5843 5842 5841 5840 5839 5837 5836 5834 5832 5830 5828 5826 5824 5822 5820 5817 5814 5811 5809 5806 5803 5800 5796 5793 5790 5788 5785 5782 5779
5845 5845 5845 5844 5844 5844 5843 5843 5842 5841 5841 5840 5839 5839 5838 5837 5836 5834 5833 5831 5830 5828 5826 5824 5822 5819 5817 5814 5812 5809 5806 5802 5799 5796 5792 5789 5785 5782 5778 5775 5772 5769 5766
5840 5840 5840 5840 5840 5839 5839 5838 5837 5836 5836 5835 5834 5833 5832 5831 5829 5828 5826 5825 5823 5821 5819 5816 5814 5811 5808 5805 5802 5799 5796 5793 5789 5786 5782 5778 5773 5769 5765 5762 5758 5754 5750
5835 5835 5835 5835 5834 5834 5834 5833 5832 5831 5830 5829 5828 5827 5826 5824 5823 5821 5819 5817 5815 5813 5810 5808 5805 5802 5799 5796 5793 5789 5786 5782 5779 5775 5771 5766 5762 5757 5752 5748 5743 5739 5734
5830 5830 5829 5829 5829 5828 5828 5827 5826 5825 5824 5823 5821 5820 5819 5817 5815 5813 5811 5809 5807 5804 5801 5799 5795 5792 5789 5785 5782 5778 5775 5771 5767 5763 5758 5754 5749 5744 5739 5734 5728 5723 5718
5824 5824 5824 5823 5822 5822 5821 5820 5819 5818 5817 5816 5814 5813 5811 5809 5807 5805 5802 5800 5797 5794 5792 5788 5785 5781 5778 5774 5770 5766 5762 5758 5754 5750 5746 5741 5735 5730 5725 5719 5714 5708 5702
5818 5818 5817 5816 5816 5815 5814 5813 5812 5810 5809 5808 5806 5805 5803 5801 5798 5795 5793 5790 5787 5784 5781 5777 5774 5770 5766 5762 5758 5754 5749 5745 5741 5737 5732 5727 5721 5716 5710 5704 5699 5693 5688
5811 5810 5810 5809 5808 5807 5806 5805 5803 5802 5800 5798 5797 5795 5793 5791 5788 5785 5782 5779 5776 5772 5769 5765 5762 5758 5754 5750 5746 5741 5737 5732 5727 5722 5717 5712 5707 5701 5695 5689 5683 5677 5672
5803 5803 5802 5801 5800 5798 5797 5796 5794 5792 5790 5788 5786 5784 5782 5779 5776 5773 5770 5767 5763 5760 5756 5753 5749 5745 5741 5737 5733 5728 5723 5718 5713 5708 5702 5697 5691 5686 5680 5674 5668 5662 5657
5795 5794 5793 5792 5790 5789 5787 5785 5784 5782 5779 5777 5775 5772 5769 5767 5764 5761 5757 5754 5750 5747 5743 5739 5735 5731 5727 5723 5718 5714 5709 5703 5698 5692 5686 5681 5675 5669 5664 5658 5653 5647 5641
5786 5784 5783 5782 5780 5778 5776 5774 5772 5770 5768 5766 5763 5760 5757 5754 5751 5747 5744 5740 5737 5733 5729 5725 5721 5717 5712 5708 5703 5698 5693 5688 5682 5676 5670 5664 5658 5653 5648 5642 5637 5631 5625
5776 5774 5772 5771 5769 5767 5765 5763 5760 5758 5755 5753 5750 5747 5744 5740 5737 5734 5730 5726 5723 5719 5715 5710 5706 5701 5697 5692 5687 5682 5677 5671 5665 5659 5654 5648 5642 5636 5631 5626 5620 5614 5608
5765 5763 5761 5759 5757 5755 5753 5750 5747 5745 5742 5739 5736 5733 5729 5726 5722 5719 5715 5711 5707 5703 5699 5694 5690 5685 5680 5675 5670 5665 5660 5654 5648 5642 5637 5631 5625 5620 5614 5609 5603 5597 5591
5753 5751 5749 5746 5744 5742 5739 5736 5733 5730 5727 5724 5721 5718 5714 5710 5707 5703 5699 5695 5691 5687 5682 5678 5673 5668 5663 5658 5653 5648 5643 5637 5631 5625 5620 5614 5608 5603 5597 5592 5586 5580 5575
5741 5738 5736 5733 5731 5728 5725 5721 5718 5715 5711 5708 5705 5702 5698 5694 5691 5687 5683 5679 5674 5670 5665 5660 5656 5651 5646 5641 5636 5631 5625 5620 5614 5608 5603 5597 5592 5586 5581 5575 5570 5564 5558
5727 5725 5722 5719 5716 5713 5710 5706 5703 5699 5696 5692 5689 5686 5682 5678 5674 5671 5666 5662 5657 5652 5647 5642 5638 5633 5628 5623 5617 5612 5607 5602 5596 5591 5586 5581 5575 5569 5564 5559 5553 5548 5542
5713 5710 5708 5705 5701 5698 5694 5691 5687 5684 5680 5677 5673 5669 5665 5661 5657 5653 5649 5644 5640 5635 5630 5624 5620 5615 5610 5605 5599 5594 5589 5584 5579 5574 5569 5564 5558 5553 5547 5542 5537 5532 5528
5699 5696 5693 5690 5686 5683 5679 5676 5672 5668 5664 5660 5656 5653 5649 5644 5640 5636 5631 5627 5622 5617 5612 5606 5601 5596 5591 5586 5581 5577 5572 5567 5562 5557 5552 5547 5543 5537 5532 5527 5523 5518 5514
5684 5681 5678 5675 5671 5668 5664 5660 5656 5652 5648 5644 5640 5636 5632 5627 5623 5618 5614 5609 5604 5599 5594 5588 5583 5578 5573 5569 5564 5560 5555 5551 5546 5541 5536 5532 5528 5523 5518 5513 5509 5505 5501